STARLINK-34121

Satellite information

Favourite Embed

Satellite Type and Status

PAYLOADIN ORBIT

Key statistics

Satellite STARLINK-34121 at a glance.

Uptime

214

Days in orbit

Revolutions

≈ 15.3

Per day

Orbit

LEO

Low Earth Orbit

Inclination

43.0

Latest

Satellite identification and parameters

Extended collection of information and parameters for STARLINK-34121.

Object identification

Identified? True

Debris? False

Object name: STARLINK-34121

International designator: 2025-099K

Object number (NORAD): 63961

Object ID (CCSDS): 63961

Country: UNITED STATES OF AMERICA (US)

Current information (Y/N): Y

RCS size: LARGE

Orbital parameters

Period: 94.27 minutes

Inclination: 42.9992 deg

SMA: 6861.323 km

Apoapsis: 484.481 km

Periapsis: 481.896 km

RAAN: 310.4093 deg

Eccentricy: 0.00018838

Argument of periapsis: 267.7113 deg

Mean anomaly: 92.3523 deg

Mean motion: 15.27534142 rev/day

Mean motion (dot): 0.00030659 rev/day2

B* drag term: 0.0011205724 1/REarth

Two-line elements (TLE)

Creation date: Dec. 12, 2025, 10:14 a.m.

Reference frame: TEME

Reference center: EARTH

Epoch: Dec. 12, 2025, 4:28 a.m. UTC

TLE line 0: 0 STARLINK-34121

TLE line 1: 1 63961U 25099K 25346.18648817 .00030659 00000-0 11206-2 0 9998

TLE line 2: 2 63961 42.9992 310.4093 0001884 267.7113 92.3523 15.27534142 33958

Live tracking on map

Real-time ground track for satellite STARLINK-34121.

In-orbit conjunctions

There are no conjunctions computed for STARLINK-34121, at the moment. Check back to stay up to date, as we update our databases every day.

Go to all conjunctions

Associated space launch

A batch of 28 satellites for the Starlink mega-constellation - SpaceX's project for space-based Internet communication system.

STARLINK-34121 was lifted into orbit during the mission ‘Falcon 9 Block 5 | Starlink Group 6-83’, on board a Falcon 9 space rocket.

The launch took place on May 13, 2025, 5:02 a.m. from Launch Complex 39A.

For more information about the launch, click the button.

Launch to space Falcon 9 Block 5 | Starlink Group 6-83
Falcon 9 Block 5 | Starlink Group 6-83

Agency: SpaceX

Status: Launch Successful

Launch date: May 13, 2025, 5:02 a.m. UTC

Rocket: Falcon 9

Launch pad: Launch Complex 39A

Location: Kennedy Space Center, FL, USA

...

Latest news about this satellite

News about space launch
Rocket Report: How is your payload fairing? Poland launches test rocket.

No thunder down under.

News about space launch
Launch Roundup: Orbital launches from five countries planned

On the heels of a busy April, activity is ramping up for May with launches… The post Launch Roundup: Orbital launches from five countries planned appeared first on NASASpaceFlight.com.

News about space launch
Live coverage: 28 Starlink satellites to launch on Falcon 9 booster making record breaking 28th flight

The Starlink 6-83 mission will also mark SpaceX’s 100th Falcon 9 launch from Launch Complex 39A. Liftoff is targeted for 12:06 a.m. EDT (0406 UTC).


Newsletter sign-up

Weekly statistics, charts and insights to help you stay on top of the space industry.